Flag for Germany Weather past 2 weeks in Wertheim, Baden-Württemberg, Germany

Now
57 °F

Passing clouds.


Feels Like: 57 °F
Forecast: 49 / 71 °F
Wind: 1 mph from South

Location: Wuerzburg

Current Time: Aug 27, 2014 at 11:14:30 PM

Latest Report: Aug 27, 2014 at 10:00 PM


Visibility: 31 mi

Pressure: 30.07 "Hg

Humidity: 81%

Dew point: 51 °F

Location of WertheimLocation

Historic Weather in Wertheim — Graph

°F

Wertheim temperature yesterday

Maximum temperature yesterday: 63 °F (at 3:00 PM)
Minimum temperature yesterday: 53 °F (at 3:00 AM)
Average temperature yesterday: 58 °F

Past Weeks' High & Low Weather Summary

 TemperatureHumidityPressure
High69 °F (Aug 27, 6:00 PM)99% (Aug 26, 6:00 AM)30.14 "Hg (Aug 26, 6:00 AM)
Low44 °F (Aug 25, 7:00 AM)35% (Aug 22, 12:00 PM)29.64 "Hg (Aug 13, 7:00 PM)
Average58 °F77%29.93 "Hg
* Reported Aug 12 11:00 PM — Aug 27 10:00 PM, Wertheim, Weather by CustomWeather, © 2014

Note: Actual official high and low records may vary slightly from our data, if they occured in-between our weather recording intervals... More about our weather records

Advertising

Wertheim weather history for previous 24 hours

 ConditionsComfort  
Time TempWeatherWind HumidityBarometerVisibility
10:00 PM
Aug 27
57 °FPassing clouds.1 mph81%30.07 "Hg31 mi
9:00 PM60 °FPassing clouds.1 mph71%30.06 "Hg37 mi
8:00 PM63 °FPassing clouds.2 mph55%30.04 "Hg37 mi
7:00 PM67 °FPassing clouds.1 mph44%30.02 "Hg37 mi
6:00 PM69 °FPassing clouds.2 mph45%30.01 "Hg37 mi
5:00 PM69 °FScattered clouds.2 mph49%30.01 "Hg28 mi
4:00 PM68 °FPartly sunny.2 mph48%30.01 "Hg28 mi
3:00 PM66 °FPartly sunny.2 mph49%30.01 "Hg28 mi
2:00 PM65 °FOvercast.2 mph69%30.01 "Hg25 mi
1:00 PM62 °FPartly sunny.1 mph71%30.01 "Hg22 mi
12:00 PM62 °FOvercast.2 mph74%30.01 "Hg22 mi
11:00 AM58 °FOvercast.3 mph83%29.99 "Hg19 mi
10:00 AM58 °FOvercast.3 mph85%29.98 "Hg16 mi
9:00 AM56 °FPartly sunny.2 mph92%29.95 "Hg16 mi
8:00 AM56 °FPartly sunny.2 mph97%29.91 "Hg12 mi
7:00 AM54 °FLow clouds.2 mph97%29.90 "Hg9 mi
6:00 AM54 °FLight rain. Low clouds.1 mph98%29.87 "Hg9 mi
5:00 AM54 °FLight rain. Overcast.1 mph98%29.84 "Hg7 mi
4:00 AM54 °FLight rain. Low clouds.1 mph98%29.83 "Hg8 mi
3:00 AM54 °FLow clouds.1 mph98%29.81 "Hg11 mi
2:00 AM54 °FLight rain. Low clouds.5 mph99%29.79 "Hg7 mi
1:00 AM55 °FHeavy rain. Low clouds.6 mph99%29.78 "Hg2 mi
12:00 AM56 °FHeavy rain. Low clouds.3 mph98%29.76 "Hg3 mi
11:00 PM
Aug 26
58 °FRain. Low clouds.2 mph98%29.74 "Hg9 mi
Weather by CustomWeather, © 2014

See weather overviewHow to use our weather pages